Claremore, OK

8:18 PM CST on December 03, 2016 (GMT -0600)
Claremore Regional

Weather History for KGCM - May, 2013

Change the Weather History Date:

Wednesday, May 8, 2013

  Actual Average (KTUL) Record (KTUL)
Temperature  
Mean Temperature 66 °F 67 °F  
Max Temperature 78 °F 78 °F 97 °F (1918)
Min Temperature 55 °F 57 °F 37 °F (1938)
Cooling Degree Days 2 4  
Month to date cooling degree days 27  
Year to date cooling degree days 92  
Growing Degree Days 16 (Base 50)    
Moisture  
Dew Point 55 °F    
Average Humidity 67    
Maximum Humidity 83    
Minimum Humidity 47    
Precipitation  
Precipitation 0.01 in 0.18 in 3.66 in (1961)
Month to date precipitation 1.47  
Year to date precipitation 12.06  
Sea Level Pressure  
Sea Level Pressure 29.98 in    
Wind  
Wind Speed 9 mph (SE)    
Max Wind Speed 22 mph    
Max Gust Speed 28 mph    
Visibility 10 miles    
Events Rain , Thunderstorm    
T = Trace of Precipitation, MM = Missing Value Source: NWS Daily Summary

Daily Weather History Graph

Daily Weather History Graph

Search for Another Location

Airport or City:

Trip Planner

Search our weather history database for the weather conditions in past years. The results will help you decide how hot, cold, wet, or windy it might be!

Date:

Astronomy

May. 08, 2013 Rise Set
Actual Time 6:21 AM CDT 8:15 PM CDT
Civil Twilight 5:53 AM CDT 8:44 PM CDT
Nautical Twilight 5:19 AM CDT 9:18 PM CDT
Astronomical Twilight 4:42 AM CDT 9:55 PM CDT
Moon 5:27 AM CDT (5/8) 7:16 PM CDT (5/8)
Length of Visible Light 14h 50m
Length of Day
13h 54m
Waning Crescent, 2% of the Moon is Illuminated
May 8
Waning Crescent
May 9
New
May 17
First Quarter
May 24
Full
May 31
Last Quarter

Hourly Weather History & Observations

Time (CDT) Temp. Dew Point Humidity Pressure Visibility Wind Dir Wind Speed Gust Speed Precip Events Conditions
12:15 AM 59.0 °F 51.8 °F 77% 30.01 in 10.0 mi ESE 4.6 mph - N/A   Clear
12:35 AM 57.2 °F 51.8 °F 82% 30.01 in 10.0 mi ESE 5.8 mph - N/A   Clear
12:55 AM 57.2 °F 51.8 °F 82% 30.01 in 10.0 mi SE 4.6 mph - N/A   Clear
1:15 AM 57.2 °F 51.8 °F 82% 30.01 in 10.0 mi SE 5.8 mph - N/A   Clear
1:35 AM 59.0 °F 51.8 °F 77% 30.00 in 10.0 mi SE 6.9 mph - N/A   Clear
1:55 AM 59.0 °F 51.8 °F 77% 30.00 in 10.0 mi SE 6.9 mph - N/A   Clear
2:15 AM 59.0 °F 51.8 °F 77% 30.00 in 10.0 mi SE 8.1 mph - N/A   Clear
2:35 AM 59.0 °F 51.8 °F 77% 29.99 in 10.0 mi SE 9.2 mph - N/A   Clear
2:55 AM 57.2 °F 51.8 °F 82% 29.98 in 10.0 mi SE 9.2 mph - N/A   Clear
3:15 AM 59.0 °F 51.8 °F 77% 29.98 in 10.0 mi SE 6.9 mph - N/A   Clear
3:35 AM 59.0 °F 50.0 °F 72% 29.98 in 10.0 mi SE 9.2 mph - N/A   Clear
4:15 AM 57.2 °F 50.0 °F 77% 29.97 in 10.0 mi SE 8.1 mph - N/A   Clear
4:35 AM 55.4 °F 50.0 °F 82% 29.96 in 10.0 mi SE 8.1 mph - N/A   Clear
4:55 AM 55.4 °F 50.0 °F 82% 29.96 in 10.0 mi SE 8.1 mph - N/A   Clear
5:15 AM 55.4 °F 50.0 °F 82% 29.97 in 10.0 mi SE 6.9 mph - N/A   Clear
5:55 AM 57.2 °F 50.0 °F 77% 29.98 in 10.0 mi SE 6.9 mph - N/A   Clear
6:15 AM 57.2 °F 50.0 °F 77% 29.99 in 10.0 mi SE 5.8 mph - N/A   Clear
6:35 AM 57.2 °F 50.0 °F 77% 29.98 in 10.0 mi SE 6.9 mph - N/A   Clear
6:55 AM 57.2 °F 50.0 °F 77% 29.98 in 10.0 mi ESE 6.9 mph - N/A Thunderstorm Clear
7:15 AM 57.2 °F 51.8 °F 82% 30.00 in 10.0 mi ESE 5.8 mph - N/A   Clear
7:35 AM 59.0 °F 51.8 °F 77% 30.00 in 10.0 mi Calm Calm - N/A   Clear
7:55 AM 60.8 °F 51.8 °F 72% 30.02 in 10.0 mi East 3.5 mph - N/A   Clear
8:15 AM 62.6 °F 53.6 °F 72% 30.03 in 10.0 mi NNE 8.1 mph - N/A   Clear
8:35 AM 62.6 °F 53.6 °F 72% 30.04 in 10.0 mi NE 6.9 mph - N/A   Clear
8:55 AM 62.6 °F 53.6 °F 72% 30.05 in 10.0 mi NE 6.9 mph - N/A   Clear
9:15 AM 64.4 °F 53.6 °F 68% 30.05 in 10.0 mi ENE 6.9 mph - N/A   Clear
9:35 AM 68.0 °F 53.6 °F 60% 30.05 in 10.0 mi ENE 8.1 mph - N/A   Clear
9:55 AM 66.2 °F 53.6 °F 64% 30.05 in 10.0 mi East 9.2 mph - N/A   Clear
10:15 AM 64.4 °F 55.4 °F 73% 30.06 in 10.0 mi ENE 8.1 mph - N/A Rain Light Rain
10:35 AM 62.6 °F 55.4 °F 77% 30.06 in 10.0 mi NE 5.8 mph - N/A   Scattered Clouds
10:55 AM 62.6 °F 57.2 °F 82% 30.06 in 10.0 mi ENE 10.4 mph - 0.01 in Rain Light Rain
11:15 AM 64.4 °F 57.2 °F 77% 30.07 in 10.0 mi ENE 5.8 mph - N/A Rain Light Rain
11:35 AM 64.4 °F 59.0 °F 83% 30.07 in 10.0 mi ENE 10.4 mph - N/A   Scattered Clouds
11:55 AM 64.4 °F 59.0 °F 83% 30.06 in 10.0 mi ENE 8.1 mph - N/A   Clear
12:15 PM 69.8 °F 60.8 °F 73% 30.05 in 10.0 mi East 11.5 mph - N/A   Clear
12:35 PM 69.8 °F 59.0 °F 68% 30.03 in 10.0 mi East 13.8 mph - N/A   Clear
12:55 PM 71.6 °F 60.8 °F 69% 30.02 in 10.0 mi East 13.8 mph - N/A   Clear
1:15 PM 71.6 °F 60.8 °F 69% 30.01 in 10.0 mi ESE 13.8 mph 17.3 mph N/A   Clear
1:35 PM 73.4 °F 60.8 °F 65% 30.00 in 10.0 mi ESE 13.8 mph 18.4 mph N/A   Clear
1:55 PM 77.0 °F 59.0 °F 54% 30.00 in 10.0 mi SE 20.7 mph - N/A   Clear
2:15 PM 77.0 °F 59.0 °F 54% 29.99 in 10.0 mi SSE 17.3 mph 26.5 mph N/A   Clear
2:35 PM 78.8 °F 57.2 °F 47% 29.98 in 10.0 mi SSE 21.9 mph 26.5 mph N/A   Clear
2:55 PM 78.8 °F 59.0 °F 51% 29.98 in 10.0 mi SSE 20.7 mph 27.6 mph N/A   Clear
3:15 PM 78.8 °F 59.0 °F 51% 29.97 in 10.0 mi South 19.6 mph 26.5 mph N/A   Clear
3:35 PM 78.8 °F 59.0 °F 51% 29.96 in 10.0 mi SSE 19.6 mph 24.2 mph N/A   Clear
3:55 PM 78.8 °F 59.0 °F 51% 29.95 in 10.0 mi SSE 20.7 mph 25.3 mph N/A   Clear
4:15 PM 78.8 °F 59.0 °F 51% 29.93 in 10.0 mi SSE 19.6 mph 27.6 mph N/A   Clear
4:35 PM 78.8 °F 59.0 °F 51% 29.93 in 10.0 mi SSE 16.1 mph 24.2 mph N/A   Clear
4:55 PM 78.8 °F 59.0 °F 51% 29.92 in 10.0 mi SSE 16.1 mph - N/A   Clear
5:15 PM 78.8 °F 59.0 °F 51% 29.92 in 10.0 mi SSE 18.4 mph 24.2 mph N/A   Clear
5:35 PM 78.8 °F 59.0 °F 51% 29.91 in 10.0 mi SSE 15.0 mph 21.9 mph N/A   Clear
5:55 PM 78.8 °F 59.0 °F 51% 29.91 in 10.0 mi SSE 17.3 mph 21.9 mph N/A   Clear
6:15 PM 78.8 °F 59.0 °F 51% 29.91 in 10.0 mi SSE 15.0 mph 21.9 mph N/A   Clear
6:35 PM 77.0 °F 59.0 °F 54% 29.91 in 10.0 mi SSE 11.5 mph - N/A   Clear
6:55 PM 75.2 °F 59.0 °F 57% 29.91 in 10.0 mi South 9.2 mph - N/A   Clear
7:15 PM 73.4 °F 59.0 °F 61% 29.91 in 10.0 mi SSE 8.1 mph - N/A   Clear
7:35 PM 73.4 °F 59.0 °F 61% 29.90 in 10.0 mi SSE 8.1 mph - N/A   Clear
7:55 PM 71.6 °F 59.0 °F 64% 29.90 in 10.0 mi SSE 4.6 mph - N/A   Clear
8:15 PM 71.6 °F 59.0 °F 64% 29.91 in 10.0 mi South 6.9 mph - N/A   Clear
8:35 PM 69.8 °F 57.2 °F 64% 29.92 in 10.0 mi South 8.1 mph - N/A   Clear
8:55 PM 68.0 °F 55.4 °F 64% 29.92 in 10.0 mi SSW 8.1 mph - N/A   Clear
9:15 PM 68.0 °F 55.4 °F 64% 29.92 in 10.0 mi South 6.9 mph - N/A   Clear
9:35 PM 69.8 °F 53.6 °F 56% 29.93 in 10.0 mi South 10.4 mph - N/A   Clear
9:55 PM 69.8 °F 51.8 °F 53% 29.94 in 10.0 mi South 15.0 mph 20.7 mph N/A   Clear
10:15 PM 71.6 °F 53.6 °F 53% 29.94 in 10.0 mi South 11.5 mph - N/A   Clear
10:35 PM 69.8 °F 53.6 °F 56% 29.95 in 10.0 mi South 10.4 mph - N/A   Clear
11:55 PM 64.4 °F 57.2 °F 77% 29.98 in 10.0 mi SW 9.2 mph - N/A Rain Light Rain